sat.trackr.live / text

‹ back to catalog

STARLINK-32719

NORAD 62448 · 2024-251S

PAYLOAD ACTIVE UNKNOWN

§ Identity

Operator
Country
US
Launch date
2024-12-29
Launch site
AFWTR
Launch vehicle
Mass (kg)
RCS (m²)

Purposes: comms

External: N2YO · Heavens-Above · Gunter

§ Orbital elements

Epoch: 2026-05-24T22:11:58.837920Z

Period
94.10 min
Inclination
53.1608°
Eccentricity
0.0000835
Mean motion
15.30218412 rev/d
Perigee alt
474.6 km
Apogee alt
475.7 km
Semi-major
6,853.3 km
B*
6.8934e-4
RAAN
341.5280°
Arg perigee
111.1840°
Mean anomaly
248.9251°
Rev number
7,944

§ Raw data

STARLINK-327191 62448U 24251S   26144.92498655  .00020124  00000+0  68934-3 0  99942 62448  53.1608 341.5280 0000835 111.1840 248.9251 15.30218412 79446

JSON: /api/v1/satellites/62448 · /tle

For live sub-satellite position, see the globe view (requires WebGL).

§ Visibility from observer

Set your observer location to see the next 7 days of passes ≥ 10°. The values pass through the URL so the page stays shareable.

No JS? Fill the form by hand. The geolocation button needs JavaScript.